Find Starlink 5988

NORAD ID: 56320 Int'l Des: 2023-058 Owner: SPXS Country: US Constellation: starlink operational
LEOCIRCULARRETROGRADESSO

当前视图

正在加载3D地球...

About Starlink 5988

Starlink 5988 (NORAD 56320) is a starlink constellation satellite (v1.5) launched Apr 27, 2023 by SPXS of US. It operates in LEO, CIRCULAR, RETROGRADE, SSO orbit with a mass of 300.00 kg.

即将过境

Passes for default location (London). Set your location on the main map for personalized predictions.

高度历史

Loading altitude history...

两行轨道根数

1 56320U 23058D 26265.58336806 -.00022755 00000-0 -99613-3 0 9998
2 56320 97.2845 259.3770 0002752 93.6962 91.9086 15.22050351 5739
Epoch: Sep 22, 2026 • Age: 11 hours

当前状态

高度 504.7 km
远地点 / 近地点 N/A
速度 7.61 km/s
星下点 -9.21°S, 60.83°E
发射日期 Apr 27, 2023
运行时间 3.4 years
类型 internet

技术详情

分类 Payload
质量 300.00 kg
干质量 260.00 kg
长度 0.20 m
跨度 9.00 m
形状 ? Box + pan
制造商 SPXS
平台类型 Starlink
阶段状态 In Orbit
所有者/国家 SPXS/US

Most Searched